Flag for France Weather past 2 weeks in Paris, France

Now
70 °F

Passing clouds.


Feels Like: 70 °F
Forecast: 52 / 80 °F
Wind: 9 mph from Northeast

Location: Villacoublay

Current Time: Jul 31, 2015 at 7:45:39 PM

Latest Report: Jul 31, 2015 at 7:00 PM


Visibility: N/A

Pressure: 29.95 "Hg

Humidity: 35%

Dew point: 41 °F

Location of ParisLocation

Historic Weather in Paris — Graph

°F

Paris temperature yesterday

Maximum temperature yesterday: 70 °F (at 4:00 PM)
Minimum temperature yesterday: 50 °F (at 4:00 AM)
Average temperature yesterday: 60 °F

Past Weeks' High & Low Weather Summary

 TemperatureHumidityPressure
High95 °F (Jul 16, 6:00 PM)100% (Jul 19, 7:30 AM)30.12 "Hg (Jul 19, 7:30 AM)
Low50 °F (Jul 30, 4:00 AM)22% (Jul 16, 6:00 PM)29.62 "Hg (Jul 25, 12:00 AM)
Average67 °F66%29.95 "Hg
* Reported Jul 16 6:00 PM — Jul 31 6:30 PM, Paris, Weather by CustomWeather, © 2015

Note: Actual official high and low records may vary slightly from our data, if they occured in-between our weather recording intervals... More about our weather records

Advertising

Paris weather history for previous 24 hours

 ConditionsComfort  
Time TempWeatherWind HumidityBarometerVisibility
6:30 PM
Fri, Jul 31
70 °FSunny.N/A33%29.95 "Hg10 mi
6:00 PM72 °FPassing clouds.12 mph33%29.95 "HgN/A
5:30 PM72 °FPassing clouds.8 mph31%29.98 "HgN/A
5:00 PM72 °FPassing clouds.7 mph31%29.98 "HgN/A
4:30 PM72 °FSunny.N/A31%29.98 "Hg10 mi
4:00 PM70 °FPassing clouds.7 mph33%30.01 "HgN/A
3:30 PM70 °FPassing clouds.8 mph35%30.01 "HgN/A
3:00 PM70 °FSunny.N/A35%30.01 "Hg10 mi
2:30 PM68 °FPassing clouds.8 mph38%30.04 "HgN/A
2:00 PM68 °FSunny.N/A40%30.04 "Hg10 mi
1:30 PM68 °FSunny.7 mph40%30.04 "Hg10 mi
1:00 PM66 °FPassing clouds.7 mph43%30.07 "HgN/A
12:30 PM64 °FPassing clouds.8 mph46%30.07 "HgN/A
12:00 PM64 °FPassing clouds.10 mph49%30.07 "HgN/A
11:30 AM63 °FPassing clouds.9 mph52%30.07 "HgN/A
11:00 AM61 °FPassing clouds.9 mph55%30.09 "HgN/A
10:30 AM61 °FPassing clouds.9 mph55%30.09 "HgN/A
10:00 AM61 °FPassing clouds.9 mph55%30.09 "HgN/A
9:30 AM59 °FSunny.8 mph59%30.09 "Hg10 mi
9:00 AM57 °FSunny.7 mph67%30.09 "Hg10 mi
8:30 AM57 °FPassing clouds.7 mph67%30.09 "HgN/A
8:00 AM55 °FPassing clouds.6 mph77%30.09 "HgN/A
7:30 AM54 °FSunny.6 mph77%30.09 "Hg10 mi
7:00 AM52 °FClear.5 mph82%30.09 "Hg10 mi
6:30 AM52 °FClear.5 mph82%30.09 "Hg10 mi
6:00 AM52 °FClear.6 mph82%30.09 "Hg10 mi
5:30 AM52 °FPassing clouds.6 mph82%30.09 "HgN/A
5:00 AM52 °FClear.3 mph82%30.09 "Hg10 mi
4:30 AM52 °FClear.3 mph82%30.09 "Hg10 mi
4:00 AM52 °FPassing clouds.5 mph82%30.12 "HgN/A
3:30 AM54 °FClear.5 mph77%30.12 "Hg10 mi
3:00 AM55 °FClear.5 mph72%30.12 "Hg10 mi
2:30 AM57 °FClear.9 mph63%30.12 "Hg10 mi
2:00 AM57 °FClear.9 mph63%30.12 "Hg10 mi
1:30 AM57 °FClear.8 mph59%30.12 "Hg10 mi
1:00 AM57 °FClear.6 mph59%30.12 "Hg10 mi
12:30 AM59 °FClear.8 mph55%30.12 "Hg10 mi
12:00 AM57 °FPassing clouds.6 mph59%30.12 "HgN/A
11:30 PM
Thu, Jul 30
59 °FPassing clouds.6 mph55%30.12 "HgN/A
11:00 PM59 °FClear.6 mph55%30.12 "Hg10 mi
10:30 PM61 °FSunny.7 mph52%30.12 "Hg10 mi
10:00 PM61 °FSunny.6 mph52%30.09 "Hg10 mi
9:30 PM63 °FSunny.8 mph49%30.09 "Hg10 mi
9:00 PM64 °FPassing clouds.8 mph46%30.09 "HgN/A
8:30 PM64 °FSunny.10 mph43%30.09 "Hg10 mi
8:00 PM66 °FPassing clouds.6 mph43%30.07 "HgN/A
7:30 PM68 °FSunny.N/A40%30.07 "Hg10 mi
7:00 PM66 °FPassing clouds.9 mph43%30.07 "HgN/A
Weather by CustomWeather, © 2015

See weather overviewHow to use our weather pages